User: anonymous   Login
Location: Buch
(49.7331°N, 12.1098°E)
Time: 02:23:00
(UTC+00:00)
Language:

Landsat 7 - Orbit

View from above orbital plane
View from above orbital plane
View from above satellite
View from above satellite

Ground track
Ground track

The orbit data is extracted from the following two-line orbital elements,

1 25682U 99020A   21207.71884340  .00000030  00000-0  16225-4 0  9993
2 25682  98.0286 263.1874 0001768  78.6103 281.5300 14.57204357185119
Epoch (UTC): 26 July 2021 17:15:08
Eccentricity: 0.0001768
inclination: 98.0286°
perigee height: 701 km
apogee height: 703 km
right ascension of ascending node: 263.1874°
argument of perigee: 78.6103°
revolutions per day: 14.57204357
mean anomaly at epoch: 281.5300°
orbit number at epoch: 18511

The dashed part of the orbit path shows where the satellite is in the earth's shadow,  

DLR